MyTimes logo

TIMES

Webb Imagery

3/01/2015
Phillip Island Swim Classic
2.0km

(Click on competitor name to view personalised results)

Name
Race #
Category
Time
(h:mm:ss)
Avg Speed
km/hr
OAll
Place
Cat
Place
SHEPPARD Sam#641Open Male0:19:09"09:34 " 11
ASBURY Shane#605Open Male0:19:38"09:49 " 22
WILDES Adam#407Junior Male0:20:13"10:07 " 31
BENNETT Sam#523Open Female0:21:00"10:30 " 41
IZEWSKI Joshua#623Open Male0:21:11"10:35 " 53
BUTT Chloe#515Open Female0:21:27"10:43 " 62
EBENWALDNER Ebony#505Senior Female0:21:35"10:48 " 71
GUILLE Tim#614Senior Male0:21:47"10:54 " 81
KARWUSKI Nick#627Open Male0:21:49"10:55 " 94
FOOTE Nathan#430Junior Male0:21:52"10:56 " 102
WEBSTER Robby#626Open Male0:21:53"10:56 " 115
OSBORNE Stephen#423Veteran Male0:21:59"11:00 " 121
TOMLIN Renee#520Open Female0:22:13"11:07 " 133
GANDY Ellen#504Open Female0:22:16"11:08 " 144
ANDERSON David#436Veteran Male0:22:35"11:18 " 152
HARVEY Peta#422Veteran Female0:22:41"11:21 " 161
CHAPLIN Greg#417Veteran Male0:22:45"11:22 " 173
WACHTER Aurel#629Mature Male0:22:58"11:29 " 181
HENDERSON Rebecca#424Junior Female0:22:58"11:29 " 191
BOND Marcus#639Mature Male0:23:15"11:37 " 202
NEWTON Adrian#630Mature Male0:23:25"11:43 " 213
KEIL Megan#411Junior Female0:23:28"11:44 " 222
GROVES Tamara#524Open Female0:23:34"11:47 " 235
FAIRFAX Joshua#603Mature Male0:23:52"11:56 " 244
FLEISNER Rob#425Veteran Male0:23:52"11:56 " 254
MAGANN Jarrod#621Open Male0:23:57"11:58 " 266
ENTERS Shodai#616Senior Male0:24:10"12:05 " 272
CLARKSON Mack#610Mature Male0:24:17"12:09 " 285
EVANS Brad#619Mature Male0:24:22"12:11 " 296
ASBURY Samantha#507Open Female0:24:23"12:12 " 306
DUYVESTYN Con#418Super Veteran Male0:24:23"12:12 " 311
LITTLE Will#438Junior Male0:24:24"12:12 " 323
BLAKEMORE Daniel#604Senior Male0:24:25"12:13 " 333
WHITE Cameron#618Senior Male0:24:33"12:16 " 344
GIBSON Tom#446Veteran Male0:24:36"12:18 " 355
SORENSEN Michael#412Veteran Male0:24:39"12:20 " 366
HARWOOD Michael#413Veteran Male0:25:02"12:31 " 377
ELLUL Jackie#509Open Female0:25:13"12:36 " 387
RIED Karin#510Mature Female0:25:26"12:43 " 391
TRAVERS Graham#420Super Veteran Male0:25:39"12:49 " 402
YUSKO Bill#455Super Veteran Male0:25:46"12:53 " 413
HANLEY Philip#414Super Veteran Male0:25:47"12:53 " 424
CANN Lara#502Senior Female0:25:48"12:54 " 432
O'DONOHUE Mark#447Veteran Male0:25:48"12:54 " 448
ENTERS Caterina#514Senior Female0:25:54"12:57 " 453
NEWTON Viki#527Open Female0:25:56"12:58 " 468
ORR Tony#457Veteran Male0:26:10"13:05 " 479
MAGANN Jake#622Open Male0:26:15"13:07 " 487
ORR Ellie#530Senior Female0:26:19"13:10 " 494
THERIAULT David#415Super Veteran Male0:26:23"13:11 " 505
PERRY Ian#607Open Male0:26:25"13:12 " 518
BEHRSIN Brianna#448Junior Female0:26:39"13:19 " 523
DRENNAN Amanda#519Open Female0:26:47"13:24 " 539
UPSTILL Simon#608Senior Male0:26:48"13:24 " 545
MOORE Emma#522Mature Female0:26:48"13:24 " 552
BEHRSIN John#449Veteran Male0:27:06"13:33 " 5610
HARRIS Simon#612Mature Male0:27:09"13:35 " 577
NEWTON Lauren#528Open Female0:27:19"13:40 " 5810
ADAMS James#640Senior Male0:27:32"13:46 " 596
MOSSE Peter#440Super Veteran Male0:27:48"13:54 " 606
MACKRILL Cameron#620Mature Male0:28:02"14:01 " 618
GERRARD John#426Veteran Male0:28:08"14:04 " 6211
MURPHY Victor#633Mature Male0:28:11"14:05 " 639
DODD Jennifer#402Veteran Female0:28:17"14:08 " 642
ATKINSON Kim#516Mature Female0:28:18"14:09 " 653
DAVEY Andrew#642Senior Male0:28:19"14:10 " 667
LAWS Christina#508Senior Female0:28:21"14:10 " 675
OLDHAM Lester#437Super Veteran Male0:28:21"14:10 " 687
COX Bill#433Veteran Male0:28:23"14:11 " 6912
STEWART Peter#606Mature Male0:28:25"14:13 " 7010
MORRISON Kerry#458Veteran Female0:28:28"14:14 " 713
SYME Michael#431Super Veteran Male0:28:31"14:15 " 728
GIBSON Elizabeth#406Veteran Female0:28:32"14:16 " 734
CURTIS Brad#435Veteran Male0:28:32"14:16 " 7413
RECAZZOLI David#634Senior Male0:28:33"14:16 " 758
LLOYD Karen#501Mature Female0:28:33"14:16 " 764
CLARKSON Anna#529Senior Female0:28:39"14:19 " 776
TAYLOR Chris#631Mature Male0:28:45"14:23 " 7811
BUTTON Georgina#503Open Female0:28:45"14:23 " 7911
FLEISNER Paul#427Super Veteran Male0:28:54"14:27 " 809
ROBINSON Terry#617Mature Male0:28:56"14:28 " 8112
LLOYD Greg#601Mature Male0:29:11"14:35 " 8213
KAMINSKI Peter#419Veteran Male0:29:15"14:37 " 8314
WIERINGA Samantha#521Open Female0:29:53"14:56 " 8412
GARDINER Brittany#512Open Female0:30:09"15:05 " 8513
WILLIS Andrew#456Veteran Male0:30:18"15:09 " 8615
MORRIS Leesa#513Veteran Female0:30:20"15:10 " 875
WEBBER Simone#443Veteran Female0:30:24"15:12 " 886
MARSHALL Sarah#517Mature Female0:30:26"15:13 " 895
RAYNER Cate#506Senior Female0:30:33"15:17 " 907
MANNING Simon#428Veteran Male0:30:33"15:17 " 9116
HOLLINS Jenny#526Mature Female0:30:49"15:25 " 926
LERK Nadia#518Mature Female0:30:58"15:29 " 937
THOMAS Merv#403Veteran Male0:32:09"16:05 " 9417
HUGHES Nick#637Mature Male0:32:16"16:08 " 9514
CARTER Dean#441Super Veteran Male0:32:26"16:13 " 9610
FITZGERALD Richard#454Veteran Male0:32:34"16:17 " 9718
WILLIAMS Peter#643Mature Male0:32:36"16:18 " 9815
WEBBER Neil#442Veteran Male0:32:40"16:20 " 9919
HIBBLE Jenny#405Veteran Female0:33:16"16:38 " 1007
HORDER Andrew#439Veteran Male0:37:4818:54 10120